RH
24 29 36 33 40 32 34 40 52 36 40 63 67 63 68 79 79 74 72 64 50 57 56 44 30 28 38 43 42 36 41 38 30 30 42 42 34 41 58 60 36 31 32 38 44 40 39 55 70
31 40 50 51 41 41 37 56 50 65 65 52 54 53 54 52 49 56 55 56 59 54 47 42 29 26 31 35 46 50 37 33 29 36 31 40 41 40 53 61 58 48 39 32 31 33 33 37 50
32 41 51 60 66 64 34 56 53 51 65 53 54 54 60 66 60 55 57 66 61 56 43 35 30 25 29 38 49 52 42 43 44 52 40 49 44 52 51 51 52 51 49 44 36 38 35 28 33
38 41 42 41 50 83 54 48 49 55 54 57 60 65 63 70 62 74 63 79 65 58 45 28 27 31 32 33 33 34 30 31 35 71 72 83 72 53 54 64 66 63 54 53 54 49 42 38 30
59 52 46 49 49 47 66 58 61 68 68 61 55 56 58 60 55 76 91 89 62 48 35 29 31 28 25 23 28 29 28 28 32 55 66 86 95 99 75 82 85 60 90 70 53 52 54 52 42
58 59 44 41 51 57 80 70 80 79 82 74 79 66 64 57 61 62 87 91 63 45 29 29 30 30 29 24 18 19 21 22 21 23 29 46 54 73 100 100 100 97 87 87 88 62 52 48 43
34 41 44 54 55 56 67 76 80 97 95 77 86 73 68 61 58 63 89 82 56 37 29 29 29 24 23 20 16 13 12 12 12 12 14 15 18 22 34 88 100 100 91 93 91 92 82 64 65
36 42 46 51 59 55 82 79 76 100 97 100 95 90 78 64 62 72 98 83 53 31 30 25 19 16 13 13 11 11 10 10 10 10 10 10 11 13 15 18 28 65 99 100 100 95 98 94 76
38 46 56 67 71 72 80 67 100 100 100 81 83 90 72 63 71 88 99 80 46 30 24 18 13 10 10 10 11 11 11 10 10 10 10 10 10 10 10 10 11 13 24 40 40 44 55 63 79
60 63 66 95 99 70 76 100 100 99 78 79 88 70 64 74 68 87 100 72 39 29 20 12 10 9 9 10 10 11 11 11 11 11 11 11 10 10 10 10 10 10 10 11 14 12 14 19 28
95 99 99 93 69 100 100 100 100 73 82 99 79 65 76 91 82 99 98 61 35 27 17 11 10 10 9 9 10 10 10 10 11 11 11 10 10 11 10 10 10 10 10 10 10 11 11 11 12
100 100 100 100 100 100 88 86 88 100 100 88 84 79 97 99 94 100 88 50 34 21 12 10 10 9 9 9 9 12 14 16 14 13 12 13 13 12 11 11 11 12 12 12 12 12 12 11 11
100 100 100 77 100 98 68 86 100 100 98 96 90 96 98 91 98 100 77 44 26 14 11 10 10 9 9 10 11 15 20 20 16 16 16 15 14 16 16 14 14 16 16 14 13 12 12 12 12
100 100 91 100 100 98 100 100 100 100 100 87 88 100 93 85 100 99 64 38 19 14 11 11 11 10 12 12 13 13 16 21 16 15 15 16 16 15 14 14 14 18 16 14 15 14 11 10 9
100 100 100 100 100 100 100 100 100 100 98 100 100 100 100 100 100 93 50 33 18 14 11 11 11 11 12 14 16 14 17 19 16 16 15 16 17 17 17 17 16 16 15 12 11 11 10 9 9
100 100 100 100 100 100 98 100 99 97 100 100 100 100 100 100 100 70 46 24 14 12 11 11 12 15 17 16 15 15 18 16 17 17 17 19 21 27 38 32 22 20 17 16 15 13 12 11 10
100 100 100 100 92 80 79 78 88 100 100 100 100 100 100 100 95 55 33 16 13 12 13 13 15 20 24 26 28 31 33 42 47 48 44 43 45 45 41 34 33 32 27 22 19 17 16 14 12
80 99 98 84 72 66 82 96 100 100 100 100 100 100 100 100 66 47 21 14 14 14 13 15 27 36 35 39 44 49 54 53 49 45 41 41 45 49 58 47 46 50 49 45 38 32 24 18 15
61 67 61 66 84 92 100 100 100 100 100 100 99 100 100 84 54 32 18 15 15 15 14 20 32 43 52 52 51 48 47 44 42 40 38 33 32 31 32 31 30 32 38 40 36 36 38 37 30
63 62 72 77 94 84 96 100 100 100 100 100 100 100 99 66 48 23 16 15 16 16 15 23 36 48 53 52 56 58 60 57 53 51 56 54 44 37 33 33 35 38 42 44 46 48 44 37 33
64 76 71 57 62 72 82 83 100 100 97 100 100 99 76 60 36 19 16 16 17 17 17 29 42 53 60 54 64 61 58 63 54 46 48 54 52 40 33 32 39 44 46 48 49 48 45 48 48
59 54 42 41 64 68 78 75 99 91 100 100 100 85 74 47 27 18 18 19 18 17 21 37 55 71 77 67 72 68 67 69 57 53 54 64 66 59 45 39 38 43 48 48 49 49 49 47 42
42 45 36 37 58 74 96 91 100 100 100 95 83 82 60 35 21 18 21 20 18 18 26 50 68 79 68 62 69 67 69 53 48 43 45 48 47 43 44 38 38 47 57 54 52 50 46 44 40
41 36 39 70 96 98 96 100 100 99 91 75 88 65 41 26 21 20 22 19 19 19 32 63 79 77 69 72 65 69 57 48 41 38 36 34 34 33 35 36 39 44 44 49 48 42 37 37 36
38 40 68 97 98 99 98 89 89 76 86 88 71 46 30 23 21 22 22 20 20 21 38 71 78 72 75 75 66 59 52 47 44 38 36 32 29 29 32 35 35 38 39 33 28 24 21 19 18
43 65 71 77 70 72 68 65 77 88 79 59 46 32 24 23 22 24 23 21 21 24 47 71 76 76 80 71 62 60 61 57 50 42 35 30 30 31 32 32 28 21 13 10 9 9 10 10 10
64 64 67 59 57 52 55 65 67 64 54 43 32 26 24 23 24 24 24 23 22 33 65 83 89 89 84 78 79 72 60 50 43 34 32 30 29 32 33 24 11 8 9 9 9 10 11 11 11
60 62 63 55 46 49 51 53 52 47 41 33 27 24 24 25 25 25 26 24 28 52 88 96 100 96 94 83 73 58 49 43 39 39 34 30 32 31 15 8 9 9 8 7 7 8 8 9 11
59 56 50 48 40 39 50 46 38 33 27 23 22 24 25 26 26 28 27 27 40 78 99 100 100 98 82 72 59 50 48 45 43 37 33 34 32 12 9 8 6 5 4 4 4 5 6 6 7
44 41 38 34 32 32 28 22 20 19 19 21 23 26 26 27 30 30 27 38 88 94 100 100 100 89 75 69 57 51 46 45 37 34 34 36 12 10 7 5 4 4 3 3 3 3 4 4 5
Wind_Speed
14 16 14 12 16 18 17 19 24 23 23 27 28 31 33 38 39 43 44 47 46 46 47 48 48 49 52 53 52 50 48 50 51 52 56 57 56 58 60 60 62 59 60 62 62 62 63 66 69
17 19 18 19 21 20 16 20 25 29 32 33 35 35 38 38 42 45 50 51 49 50 50 50 49 50 51 54 56 57 55 54 54 57 58 60 59 60 65 63 63 66 64 64 65 65 66 67 70
18 21 21 22 24 26 25 26 30 31 33 34 36 39 42 44 46 49 52 52 51 52 53 51 50 48 50 52 56 60 59 60 57 59 60 64 61 65 63 65 69 66 65 68 69 69 68 70 72
21 22 22 23 23 26 31 31 33 35 38 40 42 44 45 48 48 52 54 56 57 55 55 52 52 50 49 51 55 60 62 63 64 65 65 65 66 66 67 65 61 63 68 68 69 74 72 74 74
24 25 25 27 27 30 32 35 38 41 44 45 47 49 51 52 50 54 56 59 61 58 57 51 51 54 56 60 63 65 68 69 69 68 70 69 70 69 71 72 72 73 71 71 73 73 75 76 77
28 28 29 29 30 33 36 39 42 45 48 51 53 53 53 52 53 56 59 64 63 60 56 53 56 61 64 66 67 69 72 74 74 74 74 75 74 74 74 77 77 79 76 76 74 75 78 77 81
28 32 32 35 37 37 41 43 47 48 53 58 57 55 59 58 59 60 64 66 67 62 58 58 62 67 68 70 71 71 72 74 74 73 74 75 77 76 77 79 81 82 83 80 80 80 79 80 81
31 33 39 39 42 43 47 47 52 51 58 62 62 61 63 63 64 64 68 69 69 64 61 63 68 68 69 68 68 68 70 71 73 73 72 72 73 77 79 81 81 85 87 87 87 87 88 88 87
40 39 43 42 46 49 53 52 53 52 60 64 68 67 64 63 65 69 71 72 71 65 66 70 72 69 67 67 67 65 67 69 71 72 71 71 71 73 75 79 82 83 87 88 87 90 91 92 92
43 46 46 48 50 51 53 53 54 58 67 67 65 65 64 67 72 74 74 75 70 68 71 73 70 67 66 63 63 64 64 66 69 70 71 71 71 71 72 73 75 77 81 82 85 86 86 87 89
46 48 49 48 53 46 50 55 59 64 64 66 64 65 68 72 78 79 76 75 71 71 75 73 71 69 66 64 63 63 61 61 65 69 71 70 69 70 70 70 69 70 74 76 79 80 82 84 86
43 45 46 42 45 48 59 61 65 63 66 65 67 68 72 77 82 80 78 77 72 75 75 73 71 67 63 62 59 55 52 53 57 62 67 70 71 69 68 67 67 67 69 71 74 76 80 82 84
50 46 44 57 58 59 60 63 63 68 68 72 71 71 77 80 83 79 77 75 74 76 77 75 73 70 64 58 55 50 46 46 49 54 58 63 69 68 68 68 67 67 68 71 72 74 77 79 81
41 46 61 59 58 60 59 62 68 73 73 76 74 73 80 83 82 77 76 72 75 77 76 73 72 72 66 58 53 48 42 42 42 43 48 53 57 64 68 69 69 68 71 73 76 78 78 79 80
53 54 54 57 59 60 63 66 71 74 78 76 73 76 82 84 78 76 74 73 74 77 75 69 66 63 59 52 45 41 36 37 39 40 40 42 43 48 56 60 65 70 75 79 81 81 78 77 77
56 61 63 65 64 65 67 71 74 74 74 73 74 78 82 81 77 76 74 73 73 73 69 66 60 52 45 39 34 29 28 30 30 33 30 28 29 30 35 41 48 52 59 64 70 74 77 78 80
58 61 65 65 67 69 71 73 75 76 78 74 76 80 79 77 75 75 73 73 73 69 68 63 55 43 34 28 22 18 18 19 20 21 21 21 22 25 29 30 34 36 40 43 47 53 60 66 70
65 65 65 68 73 73 75 78 76 77 74 73 77 77 76 75 73 72 71 71 70 67 63 55 40 30 26 23 21 21 20 22 24 25 26 27 29 31 34 37 36 38 39 40 41 42 45 51 58
68 71 72 74 76 78 79 73 72 73 72 75 73 73 75 72 69 69 68 68 67 65 59 47 34 29 27 25 24 25 25 25 28 29 31 33 34 36 36 37 39 40 43 44 46 46 46 46 50
72 75 74 75 75 73 72 70 70 71 73 70 69 72 72 69 67 67 66 67 65 64 57 45 34 28 29 29 29 30 30 32 32 33 34 37 40 42 41 40 41 41 41 44 45 47 47 48 52
73 72 72 71 70 68 68 65 69 68 65 64 69 70 67 68 67 65 67 66 63 62 52 42 33 30 32 33 32 33 34 36 38 39 38 39 42 44 46 45 46 49 51 53 56 58 58 57 55
73 73 70 70 70 68 69 66 64 59 59 65 68 67 67 66 67 67 67 66 63 60 47 39 33 32 34 35 35 36 38 40 44 46 47 48 50 50 52 55 56 56 60 61 62 64 65 67 65
74 70 69 69 68 66 63 59 55 58 61 64 64 65 66 66 67 68 68 66 64 55 42 38 34 34 38 37 38 40 43 45 48 51 51 54 55 58 61 60 61 65 70 71 72 73 75 76 75
64 66 66 64 60 58 57 57 58 60 64 61 63 65 65 67 68 68 69 66 64 49 37 36 35 38 38 39 41 44 48 50 53 57 59 61 65 67 70 71 73 75 76 80 83 82 79 77 77
64 65 61 59 57 56 58 58 60 60 62 62 63 65 67 68 68 68 69 66 59 44 35 37 38 38 40 42 45 48 52 54 59 63 66 69 73 77 81 84 83 83 86 83 82 81 80 80 79
64 62 57 56 53 57 57 56 57 61 62 62 63 67 68 68 69 69 68 65 51 39 34 37 38 40 42 45 49 52 55 60 64 68 71 75 80 85 90 92 90 86 81 78 75 74 74 75 75
59 59 55 52 52 52 54 58 59 62 63 64 66 68 69 68 69 69 67 60 43 34 34 36 39 42 44 48 52 56 61 64 69 73 77 82 87 93 97 94 88 78 73 70 68 68 67 68 70
61 58 55 54 54 57 60 60 62 64 66 67 68 68 68 68 69 67 63 49 36 33 34 37 39 43 46 51 55 58 63 67 73 76 81 87 94 98 95 81 76 73 71 70 68 67 68 67 69
62 61 63 62 62 64 65 65 67 68 70 69 69 68 69 68 67 64 54 38 32 33 35 38 40 45 49 54 58 62 66 71 75 79 85 93 98 89 79 74 69 66 64 62 62 61 62 65 67
62 64 64 65 68 68 68 67 74 72 71 70 69 68 68 66 63 57 40 31 30 34 37 39 43 48 52 56 60 65 68 72 75 80 89 95 87 81 75 67 60 56 52 50 49 50 52 57 61
Wind_Direction
358 356 350 336 327 320 321 319 323 318 320 322 322 319 317 319 321 316 314 310 304 305 300 298 291 281 275 274 272 270 272 273 274 268 262 263 260 255 251 248 246 247 246 244 242 240 238 234 235
347 344 337 334 335 336 340 320 324 326 326 326 324 323 321 319 320 319 319 314 308 305 299 295 293 288 281 272 268 267 273 277 276 269 267 260 259 257 253 249 248 247 246 246 244 243 241 239 237
334 339 334 328 331 332 329 328 324 324 323 321 320 321 322 321 320 318 318 317 310 304 303 295 290 288 282 278 275 274 275 275 271 267 265 263 260 257 254 251 249 247 248 246 243 243 244 242 240
326 330 329 328 328 321 323 321 320 319 316 316 316 315 317 318 318 320 320 318 314 306 304 299 293 291 287 283 279 275 275 275 273 268 265 262 261 258 255 250 246 249 249 247 247 246 246 244 243
317 319 319 317 316 316 317 316 316 318 318 316 319 319 317 316 317 318 318 317 314 308 307 300 298 298 297 289 283 278 275 272 269 268 267 263 260 260 256 249 251 253 248 248 247 246 245 246 245
314 312 315 309 313 313 312 314 313 318 316 319 318 317 317 318 318 318 317 317 316 312 307 300 298 297 294 290 283 278 276 274 271 268 264 263 261 257 255 254 254 254 250 248 248 248 246 246 246
308 310 311 313 312 312 308 313 316 319 314 316 316 314 315 317 319 318 318 317 317 313 307 303 301 297 290 286 282 279 278 276 272 269 265 263 259 255 254 253 253 253 254 252 251 250 247 247 247
299 310 311 304 310 312 309 312 317 313 309 311 314 315 314 317 319 319 318 318 316 312 307 303 301 294 290 285 281 278 277 275 272 269 266 263 260 257 254 252 252 251 251 252 253 253 252 251 247
310 304 309 309 306 309 309 313 314 308 308 311 313 314 315 318 320 319 317 317 316 313 310 308 302 297 293 287 283 279 276 274 272 268 265 263 261 258 256 254 253 252 250 249 252 252 251 250 249
303 301 301 304 308 310 313 315 308 308 308 311 314 314 317 319 320 319 316 317 316 313 312 309 303 299 296 290 282 277 273 272 269 268 266 264 262 261 259 257 256 255 253 251 251 250 249 249 249
298 298 303 306 309 316 313 302 305 309 311 310 313 315 319 319 319 316 316 316 315 314 313 312 308 304 300 295 291 285 279 273 267 265 265 263 262 261 260 260 258 258 257 255 252 250 250 249 247
307 306 306 314 311 301 303 302 307 311 310 313 315 317 316 316 318 314 315 319 317 317 314 311 307 304 301 298 292 289 283 279 275 269 263 262 264 262 261 259 259 259 259 257 255 252 250 248 247
302 301 297 299 302 304 306 308 307 309 311 312 314 316 315 316 315 314 318 318 319 317 316 314 312 309 307 301 295 291 286 280 278 273 267 262 259 261 261 261 261 260 258 257 256 254 251 248 247
296 291 298 299 301 303 305 306 306 307 309 312 313 314 313 315 312 314 318 318 320 320 317 316 314 312 309 306 301 294 283 284 289 283 269 263 261 259 260 260 260 259 258 257 256 254 252 251 249
293 297 294 296 299 300 301 303 305 306 308 309 314 311 312 312 310 314 315 319 321 319 317 316 313 310 307 304 299 293 276 283 288 291 283 268 264 261 260 258 257 258 258 259 259 259 257 256 254
289 289 291 294 298 298 299 301 304 306 309 310 310 309 311 309 312 314 316 319 321 319 318 317 315 312 313 312 309 295 288 292 293 294 295 289 281 276 272 271 266 263 263 263 263 263 261 259 257
294 294 296 299 299 300 301 302 301 304 306 307 307 308 308 306 311 314 318 320 322 321 321 319 318 320 325 328 330 325 321 330 331 327 317 308 299 290 283 279 277 273 270 266 262 259 260 259 259
290 295 296 297 299 301 301 301 301 301 303 304 306 307 305 307 311 315 319 320 322 321 320 317 315 316 319 324 325 327 329 325 324 322 317 311 303 295 291 286 281 280 279 275 271 267 263 260 254
291 296 297 298 300 301 300 297 298 300 301 303 306 303 304 308 312 315 319 320 320 320 318 312 306 308 316 319 319 320 322 321 322 323 325 320 310 301 294 288 283 277 274 275 275 272 267 263 262
293 297 298 300 298 298 297 299 299 298 301 303 301 300 305 309 313 316 318 320 321 321 317 308 306 307 309 311 316 318 320 319 321 325 327 326 318 309 301 294 289 285 280 278 275 273 271 270 268
297 298 298 296 296 298 299 300 297 299 301 300 299 302 305 310 313 317 318 322 322 320 313 303 301 303 305 308 309 311 315 317 317 317 317 319 317 308 299 291 288 286 283 281 280 278 275 270 264
295 296 298 298 298 299 298 297 297 299 297 297 299 303 307 310 314 317 319 322 320 317 307 297 297 300 300 304 306 312 313 312 314 314 316 315 313 311 303 296 291 288 286 284 280 278 277 273 269
294 294 297 298 299 297 297 301 298 297 296 297 301 304 308 311 315 317 319 320 319 315 300 291 291 291 291 299 304 308 310 310 310 310 311 310 307 307 307 300 294 292 290 286 283 280 278 274 269
294 296 299 299 298 300 299 297 296 295 296 300 303 306 309 312 314 315 317 318 318 310 293 284 286 288 294 299 302 305 307 308 310 310 311 309 308 306 306 303 298 294 290 287 284 280 275 270 266
295 296 299 298 298 297 294 294 295 297 299 303 304 306 309 311 313 314 317 317 317 304 288 282 284 289 295 299 300 301 305 308 311 312 311 308 307 306 306 303 298 293 290 286 281 276 271 267 263
296 297 299 296 297 294 296 296 297 298 301 302 304 306 308 310 312 314 316 317 313 299 284 282 287 292 297 298 302 307 309 309 310 310 309 308 309 307 305 303 299 295 290 284 278 273 268 264 261
297 299 298 297 295 296 294 296 298 297 299 302 304 306 307 310 312 314 315 315 307 294 283 285 291 297 301 305 306 307 307 309 310 312 312 311 309 308 305 303 299 294 288 282 275 270 265 260 258
298 299 298 298 295 295 294 296 295 298 299 301 303 304 306 308 311 313 314 311 301 290 286 290 296 300 304 304 306 308 310 312 314 315 313 312 310 310 307 304 300 293 286 280 273 267 262 256 252
299 298 300 299 298 295 294 296 295 296 296 299 300 302 304 308 310 312 314 305 298 291 290 295 298 303 305 307 308 311 314 316 317 316 315 314 313 311 309 307 299 293 287 281 275 268 260 255 249
299 301 300 297 294 294 294 294 293 293 295 296 297 301 304 307 310 311 309 300 297 295 295 297 301 304 308 311 313 315 317 318 318 318 317 317 318 317 314 309 303 297 292 284 276 269 260 252 247